This demonstration page uses our WeatherBlox Daily Observations layout. Learn more.

Left ArrowRight Arrow

38.88101, -77.10428

Hourly Observations for March 10, 2019

Temp ( °F °C ) Dew Point ( °F °C ) Humidity (%) Winds ( mph kmh ) Pressure ( in mb ) Visibility ( mi km ) Precip ( " mm )
12:52 am 00:52 Cloudy with Rain 40 4.4 36 2.2 86 86 SSE 6 9 30.18 1022 6 9.65604 0.08 2.032
1:28 am 01:28 Cloudy with Rain 40 4.4 37 2.8 89 89 Calm 30.18 1022 5 8.0467 0.05 1.27
1:44 am 01:44 Cloudy with Heavy Rain 40 4.4 37 2.8 89 89 SW 3 6 30.19 1022 2.5 4.02335 0.1 2.54
1:52 am 01:52 Cloudy with Rain 40 4.4 37 2.8 89 89 Calm 30.18 1022 3 4.82802 0.12 3.048
3:08 am 03:08 Cloudy with Rain 40 4.4 37 2.8 89 89 E 3 6 30.16 1021 3 4.82802 0.03 0.762
3:12 am 03:12 Cloudy with Heavy Rain 40 4.4 37 2.8 89 89 E 7 11 30.14 1021 2.5 4.02335 0.05 1.27
3:27 am 03:27 Cloudy with Rain 40 4.4 37 2.8 89 89 ESE 7 11 30.12 1020 5 8.0467 0.08 2.032
3:42 am 03:42 Cloudy with Heavy Rain 40 4.4 38 3.3 93 93 Calm 30.15 1021 5 8.0467 0.11 2.794
3:50 am 03:50 Cloudy with Heavy Rain 39 4 37 3 93 93 Calm 30.14 1021 3 4.82802 0.14 3.556
3:52 am 03:52 Cloudy with Heavy Rain 40 4.4 37 2.8 89 89 Calm 30.14 1021 4 6.43736 0.15 3.81
4:21 am 04:21 Cloudy with Light Rain 40 4.4 37 2.8 89 89 Calm 30.11 1020 9 14.48406 0.03 0.762
4:52 am 04:52 Cloudy with Light Rain 40 4.4 37 2.8 89 89 Calm 30.09 1019 4 6.43736 0.05 1.27
5:52 am 05:52 Cloudy with Light Rain 40 4.4 38 3.3 93 93 NNE 3 6 30.09 1019 6 9.65604 0 0.0254
6:52 am 06:52 Cloudy with Drizzle 40 4.4 38 3.3 93 93 Calm 30.1 1019 4 6.43736 0 0.0254
7:02 am 07:02 Cloudy with Drizzle 40 4.4 37 2.8 89 89 NNW 7 11 30.1 1019 2.5 4.02335 0 0.0254
7:44 am 07:44 Cloudy with Drizzle 40 4.4 38 3.3 93 93 N 5 7 30.07 1018 2.5 4.02335 0.01 0.254
7:50 am 07:50 Cloudy with Drizzle 39 4 37 3 93 93 N 5 7 30.07 1018 1.25 2.011675 0.01 0.254
7:52 am 07:52 Cloudy with Drizzle 40 4.4 38 3.3 93 93 N 3 6 30.07 1018 1.25 2.011675 0.01 0.254
8:00 am 08:00 Cloudy with Drizzle 40 4.4 38 3.3 93 93 N 3 6 30.07 1018 1.25 2.011675 0 0.0254
8:38 am 08:38 Cloudy with Drizzle 40 4.4 38 3.3 93 93 N 5 7 30.07 1018 1.75 2.816345 0 0.0254
8:52 am 08:52 Cloudy with Drizzle 41 5 39 3.9 93 93 Calm 30.06 1018 1.75 2.816345 0 0.0254
8:57 am 08:57 Cloudy with Mist and Fog 41 5 39 3.9 93 93 NNE 3 6 30.06 1018 4 6.43736 0 0.0254
9:43 am 09:43 Cloudy with Mist and Fog 41 5 39 3.9 93 93 Calm 30.05 1018 3 4.82802 0 0.0254
9:52 am 09:52 Cloudy with Mist and Fog 41 5 39 3.9 93 93 SSE 3 6 30.05 1018 3 4.82802 0 0.0254
10:30 am 10:30 Cloudy with Mist and Fog 43 6.1 40 4.4 89 89 S 8 13 30.03 1017 4 6.43736 0 0
10:52 am 10:52 Cloudy with Mist and Fog 42 5.6 40 4.4 92 92 S 10 17 30.01 1016 5 8.0467 0 0
11:52 am 11:52 Cloudy 46 7.8 42 5.6 86 86 SSW 10 17 29.98 1015 10 16.0934 0 0
12:01 pm 12:01 Cloudy 47 8.3 42 5.6 83 83 SSW 12 19 29.98 1015 10 16.0934 0 0
12:52 pm 12:52 Cloudy 48 8.9 43 6.1 83 83 SW 16 26 29.97 1015 10 16.0934 0 0
1:52 pm 13:52 Cloudy 51 10.6 44 6.7 77 77 SW 12 19 29.94 1014 10 16.0934 0 0
2:13 pm 14:13 Cloudy 52 11.1 45 7.2 77 77 SSW 12 19 29.93 1014 10 16.0934 0 0
2:27 pm 14:27 Cloudy 53 11.7 45 7.2 74 74 S 9 15 29.92 1013 10 16.0934 0 0
2:52 pm 14:52 Cloudy 55 12.8 47 8.3 74 74 SSW 9 15 29.91 1013 10 16.0934 0 0
3:52 pm 15:52 Mostly Cloudy 56 13.3 48 8.9 75 75 S 10 17 29.89 1012 10 16.0934 0 0
4:52 pm 16:52 Mostly Cloudy 60 15.6 48 8.9 65 65 S 9 15 29.88 1012 10 16.0934 0 0
5:52 pm 17:52 Mostly Cloudy 57 13.9 47 8.3 69 69 S 9 15 29.88 1012 10 16.0934 0 0
6:52 pm 18:52 Mostly Cloudy 57 13.9 47 8.3 69 69 S 9 15 29.89 1012 10 16.0934 0 0
7:52 pm 19:52 Cloudy 54 12.2 46 7.8 75 75 S 9 15 29.91 1013 10 16.0934 0 0
8:52 pm 20:52 Cloudy 53 11.7 46 7.8 77 77 S 7 11 29.93 1014 10 16.0934 0 0
9:52 pm 21:52 Cloudy 54 12.2 47 8.3 77 77 SW 5 7 29.96 1015 10 16.0934 0 0
10:52 pm 22:52 Mostly Cloudy 51 10.6 46 7.8 83 83 Calm 29.99 1016 10 16.0934 0 0
11:52 pm 23:52 Mostly Cloudy 51 10.6 47 8.3 86 86 Calm 30.02 1017 10 16.0934 0 0

Powered by AerisWeather